Location: ?
(35.3436°N, 139.3168°E)
Time: 10:45:41
(UTC+00:00)

X-37B - Pass Details

Date: 27 January 2021
Orbit: 383 x 391 km, 45.0° (Epoch: 10 February)

Event Time Altitude Azimuth Distance (km) Brightness Sun altitude
Rises 09:29:00 0° 306° (NW) 2,274 5.1 -17.1°
Reaches altitude 10° 09:31:30 10° 326° (NW) 1,419 3.7 -17.6°
Enters shadow 09:33:21 18° 1° (N) 1,043 2.6 -18.0°
